Flag for Japan Weather past 2 weeks in Nagasaki, Japan

Now
73 °F

Sprinkles. Broken clouds.


Feels Like: 70 °F
Forecast: 73 / 82 °F
Wind: 1 mph from North

Location: Nagasaki Airport

Current Time: Sep 1, 2015 at 9:14:18 AM

Latest Report: Sep 1, 2015 at 8:00 AM


Visibility: 5 mi

Pressure: 29.80 "Hg

Humidity: 94%

Dew point: 72 °F

Location of NagasakiLocation

Historic Weather in Nagasaki — Graph

°F

Nagasaki temperature yesterday

Maximum temperature yesterday: 77 °F (at 2:00 PM)
Minimum temperature yesterday: 72 °F (at 7:00 AM)
Average temperature yesterday: 75 °F

Past Weeks' High & Low Weather Summary

 TemperatureHumidityPressure
High91 °F (Aug 18, 3:00 PM)100% (Aug 31, 10:00 AM)29.89 "Hg (Aug 31, 10:00 AM)
Low72 °F (Aug 31, 7:00 AM)46% (Aug 23, 1:00 PM)29.00 "Hg (Aug 25, 8:00 AM)
Average80 °F80%29.72 "Hg
* Reported Aug 17 8:00 AM — Sep 1 8:00 AM, Nagasaki, Weather by CustomWeather, © 2015

Note: Actual official high and low records may vary slightly from our data, if they occured in-between our weather recording intervals... More about our weather records

Advertising

Nagasaki weather history for previous 24 hours

 ConditionsComfort  
Time TempWeatherWind HumidityBarometerVisibility
8:00 AM
Tue, Sep 1
73 °FSprinkles. Broken clouds.1 mph94%29.80 "Hg5 mi
7:03 AM72 °FLots of rain. Fog.6 mph100%29.80 "Hg1 mi
9:00 PM
Mon, Aug 31
77 °FPartly cloudy.16 mph89%29.80 "HgN/A
8:00 PM75 °FPartly cloudy.14 mph94%29.80 "HgN/A
7:00 PM75 °FSprinkles. Partly cloudy.12 mph94%29.77 "HgN/A
6:00 PM77 °FPartly sunny.2 mph94%29.77 "HgN/A
5:00 PM77 °FLight rain. Partly sunny.8 mph94%29.80 "HgN/A
4:00 PM77 °FLight rain. Partly sunny.8 mph94%29.80 "HgN/A
3:00 PM77 °FBroken clouds.12 mph94%29.80 "HgN/A
2:00 PM77 °FSprinkles. Broken clouds.9 mph94%29.80 "HgN/A
1:00 PM75 °FSprinkles. Broken clouds.2 mph100%29.83 "HgN/A
12:04 PM75 °FSprinkles. Broken clouds.1 mph94%29.83 "Hg4 mi
11:46 AM73 °FLots of rain. Fog.6 mph100%29.86 "Hg1 mi
11:02 AM73 °FRain showers. Fog.10 mph100%29.86 "Hg1 mi
11:00 AM73 °FLots of rain. Fog.10 mph100%29.86 "Hg1 mi
10:00 AM73 °FRain showers. Broken clouds.8 mph100%29.86 "Hg5 mi
9:00 AM73 °FSprinkles. Broken clouds.14 mph94%29.83 "HgN/A
Weather by CustomWeather, © 2015

See weather overviewHow to use our weather pages